STARLINK-34545, 65105

Orbit data source: Space-Track

STARLINK-34545, 65105 is a payload satellite owned by SpaceX/Seattle (US) in LEO that was launched on Mon, 04 Aug 2025 UTC via an FALCON 9 launch vehicle from the Air Force Eastern Test Range (AFETR). Payload-class satellites include a variety of spacecraft equipped with specific instruments for various scientific and technological missions. These include communications satellites like Starlink; space stations such as the ISS; scientific satellites like the Hubble; Earth observation satellites from companies like Planet Labs, Umbra, and HawkEye 360; GPS; miniature CubeSats for education and research; and military/defense satellites.

Loading next visibility...
Identifier
65105, 2025-167AD
Orbit
LEO
Country
Flag of USUS
Related business
Manufacturer
SpaceX/Seattle
Mission
Operational spacecraft
Bus & Motor
STARLINK V2MO, Unknown motor
Mass
575 kg wet, ~530 kg dry
Launch date (UTC)
2025-08-04 (1 month ago)
Launch vehicle
FALCON 9
Launch site
Air Force Eastern Test Range (AFETR)
Object type
Payload
Rocket body
Debris
Shape & HBR
Unknown
Radar Cross Section
Large (>1 m²)

Expand to show TLE details & history
Last TLE update: 9 hours ago

TLE from 9 hours ago
0 STARLINK-34545
1 65105U 25167AD  25243.23727337  .00285667  00000-0  18930-2 0  9995
2 65105  53.1584 194.6628 0001835  56.6757 303.4439 15.74144933  4274
Epoch: 2025-08-31T05:41Z
TLE epoch observation values (Epoch: 2025-08-31T05:41:40.419Z)
Latitude
0.00005°
Longitude
129.58432°
Altitude
347.302 km
Speed
7.702 km/s
True Right ascension
12h 58m 39s
True Declination
0° 00' 00"
Sunlit
Object was in daylight at epoch
Visualization orbit readout
Latitude
Unknown
Longitude
Unknown
Altitude
Unknown
Speed
Unknown
Apparent Right ascension
Unknown
Apparent Declination
Unknown
Sunlit
N/A
Visualization observer readout
Local Sidereal Time
06:12:35
Azimuth
Unknown
Elevation
Unknown
Doppler factor
Unknown
Orbital elements
Apogee altitude
348.561 km
Perigee altitude
346.093 km
Semi-major axis
6,725.464 km
Eccentricity
0.00018
Inclination
53.1584°
RAAN
194.6628°
Arg. of periapsis
56.6757°
True anomaly
303.42635°
Mean anomaly
303.4439°
Eccentric anomaly
303.43513°
Mean motion
3.93514 °/min
Orbital period
91.48 mins
BSTAR
0.001893
Loading maneuver chart data...
Computing Atmospheric mass density...
Loading historical data...
Loading historical data...
Loading historical data...
Loading historical data...
Loading historical data...
Loading historical data...
Loading historical data...

Documentation

Showing up to 5 results
|